TimeCDT,TemperatureF,Dew PointF,Humidity,Sea Level PressureIn,VisibilityMPH,Wind Direction,Wind SpeedMPH,Gust SpeedMPH,PrecipitationIn,Events,Conditions,WindDirDegrees,DateUTC
12:53 AM,52.0,48.0,86,30.34,8.0,NW,5.8,-,0.03,Rain,Light Rain,310,2012-09-13 05:53:00
1:53 AM,51.1,46.9,86,30.33,9.0,East,5.8,-,0.05,Rain,Light Rain,90,2012-09-13 06:53:00
2:53 AM,50.0,46.9,89,30.33,4.0,Calm,Calm,-,0.08,Rain,Rain,0,2012-09-13 07:53:00
3:53 AM,50.0,46.9,89,30.31,9.0,ESE,8.1,-,0.08,Rain,Light Rain,120,2012-09-13 08:53:00
4:53 AM,50.0,46.9,89,30.32,10.0,West,4.6,-,0.01,,Overcast,280,2012-09-13 09:53:00
5:53 AM,50.0,46.9,89,30.32,10.0,Calm,Calm,-,N/A,,Partly Cloudy,0,2012-09-13 10:53:00
6:53 AM,50.0,46.9,89,30.35,10.0,West,3.5,-,N/A,,Clear,280,2012-09-13 11:53:00
7:53 AM,50.0,48.0,93,30.36,10.0,WNW,3.5,-,N/A,,Clear,290,2012-09-13 12:53:00
8:53 AM,52.0,48.0,86,30.37,10.0,WNW,6.9,-,N/A,,Clear,290,2012-09-13 13:53:00
9:53 AM,55.9,48.9,77,30.40,10.0,West,6.9,-,N/A,,Clear,270,2012-09-13 14:53:00
10:53 AM,57.9,46.9,67,30.40,10.0,WSW,5.8,-,N/A,,Clear,240,2012-09-13 15:53:00
11:53 AM,60.1,46.9,62,30.40,10.0,West,8.1,-,N/A,,Clear,270,2012-09-13 16:53:00
12:53 PM,62.1,48.0,60,30.38,10.0,WSW,5.8,-,N/A,,Clear,240,2012-09-13 17:53:00
1:53 PM,64.0,48.0,56,30.37,10.0,WSW,8.1,-,N/A,,Clear,240,2012-09-13 18:53:00
2:53 PM,64.9,41.0,42,30.34,10.0,Calm,Calm,-,N/A,,Clear,0,2012-09-13 19:53:00
3:53 PM,69.1,33.1,26,30.32,10.0,South,3.5,-,N/A,,Clear,190,2012-09-13 20:53:00
4:53 PM,70.0,33.1,26,30.32,10.0,SW,3.5,-,N/A,,Clear,230,2012-09-13 21:53:00
5:53 PM,69.1,36.0,30,30.32,10.0,SW,10.4,-,N/A,,Clear,220,2012-09-13 22:53:00
6:53 PM,64.4,37.4,37,30.32,10.0,SSW,5.8,-,N/A,,Clear,200,2012-09-13 23:53:00
7:53 PM,57.9,39.9,51,30.33,10.0,SSW,6.9,-,N/A,,Clear,200,2012-09-14 00:53:00
8:53 PM,54.0,41.0,62,30.34,10.0,SSW,5.8,-,N/A,,Clear,200,2012-09-14 01:53:00
9:53 PM,54.0,44.1,69,30.34,10.0,South,5.8,-,N/A,,Clear,190,2012-09-14 02:53:00
10:53 PM,55.9,46.9,72,30.34,10.0,SSW,10.4,-,N/A,,Clear,210,2012-09-14 03:53:00
11:53 PM,54.0,45.0,72,30.33,10.0,SSW,9.2,-,N/A,,Clear,200,2012-09-14 04:53:00